Regional Weather Roundup
Issued by NWS Charleston, WV

Home | Current Version | Previous Version | Text Only | Print | Product List | Glossary On
Versions: 1 2 3 4 5 6 7 8 9 10 11 12 13 14 15 16 17 18 19 20 21 22 23 24 25 26 27 28
000
ASUS41 KRLX 211010
RWRRLX
West Virginia Regional Weather Roundup
National Weather Service Charleston WV
500 AM EST SUN JAN 21 2018

Note: "fair" indicates few or no clouds below 12,000 feet with no
significant weather and/or obstructions to visibility.

WVZ003-211100-
Northern Panhandle of West Virginia

CITY           SKY/WX    TMP DP  RH WIND       PRES   REMARKS
WHEELING       CLOUDY    41  40  96 S6        30.12S FOG
$$

WVZ009-211100-
Northwest West Virginia

CITY           SKY/WX    TMP DP  RH WIND       PRES   REMARKS
PARKERSBURG    LGT RAIN  40  38  93 CALM      30.18R FOG
$$

WVZ006-211100-
Western West Virginia

CITY           SKY/WX    TMP DP  RH WIND       PRES   REMARKS
HUNTINGTON     CLOUDY    50  35  56 SW6       30.15S
$$

WVZ015-211100-
West Central West Virginia

CITY           SKY/WX    TMP DP  RH WIND       PRES   REMARKS
CHARLESTON     CLOUDY    48  38  68 VRB3      30.15F
$$

WVZ022-031-211100-
North Central West Virginia

CITY           SKY/WX    TMP DP  RH WIND       PRES   REMARKS
CLARKSBURG     CLOUDY    46  44  93 S3        30.15S
MORGANTOWN     CLOUDY    43  41  93 S5        30.15S FOG
$$

WVZ025-035-042-045-211100-
Southern West Virginia

CITY           SKY/WX    TMP DP  RH WIND       PRES   REMARKS
BECKLEY        CLOUDY    43  34  70 SW6       30.18S
LOGAN          CLOUDY    46  36  66 CALM      30.18S
BLUEFIELD      CLOUDY    41  32  70 W6        30.19S
LEWISBURG      CLOUDY    42  40  90 W3        30.19R
$$

WVZ047-211100-
Northern Mountains of West Virginia

CITY           SKY/WX    TMP DP  RH WIND       PRES   REMARKS
ELKINS         CLOUDY    46  44  93 CALM      30.16R
$$

WVZ052-211100-
Eastern Panhandle of West Virginia

CITY           SKY/WX    TMP DP  RH WIND       PRES   REMARKS
MARTINSBURG    CLOUDY    43  37  79 CALM      30.12R
PETERSBURG     CLOUDY    47  40  76 NE3       30.12R
$$




USA.gov is the U.S. government's official web portal to all federal, state and local government web resources and services.